Regional Weather Roundup
Issued by NWS

Home | Current Version | Previous Version | Graphics & Text | Print | Product List | Glossary On
Versions: 1 2 3 4 5 6 7 8 9 10 11 12 13 14 15 16 17 18 19 20 21 22 23 24 25 26 27 28 29 30 31 32 33 34 35 36 37 38 39 40 41 42 43 44 45 46 47 48 49 50
000
ASUS43 KLMK 291802
RWRKY
KENTUCKY REGIONAL WEATHER ROUNDUP
NATIONAL WEATHER SERVICE LOUISVILLE KY
200 PM EDT TUE JUL 29 2014

NOTE "FAIR" INDICATES FEW OR NO CLOUDS BELOW 12,000 FEET
WITH NO SIGNIFICANT WEATHER AND/OR OBSTRUCTIONS TO VISIBILITY.

KYZ001>023-026-027-061>063-070>075-291900-
WESTERN AND SOUTH CENTRAL KENTUCKY

CITY           SKY/WX    TMP DP  RH WIND       PRES   REMARKS
PADUCAH        MOSUNNY   79  54  41 N9        30.13F
HENDERSON      MOSUNNY   75  55  50 NW9G17    30.10F
OWENSBORO      MOSUNNY   76  55  47 NW8       30.11F
HOPKINSVILLE   MOSUNNY   76  51  41 VRB6      30.11F
BOWLING GREEN  MOSUNNY   76  51  41 NE8       30.10F
GLASGOW        MOSUNNY   73  54  49 N7        30.10F
$$

KYZ024-025-028>034-038-045-046-053-291900-
NORTH CENTRAL KENTUCKY

CITY           SKY/WX    TMP DP  RH WIND       PRES   REMARKS
LOUISVILLE/SDF MOSUNNY   74  51  44 VRB3      30.09S
LOUISVILLE/LOU SUNNY     73  52  47 NW7       30.09F
FORT KNOX      NOT AVBL
$$

KYZ035>037-039>044-047>052-055>060-089>105-291900-
NORTHEAST KENTUCKY

CITY           SKY/WX    TMP DP  RH WIND       PRES   REMARKS
LEXINGTON      MOSUNNY   71  53  52 N7        30.09F
COVINGTON      MOSUNNY   70  50  49 VRB3      30.07F
FRANKFORT      PTSUNNY   69  52  54 NW5       30.09S
$$

KYZ054-064>069-076>088-106>120-291900-
SOUTHEAST KENTUCKY

CITY           SKY/WX    TMP DP  RH WIND       PRES   REMARKS
JACKSON        PTSUNNY   68  51  54 VRB6      30.08S
LONDON         MOSUNNY   70  49  47 N7        30.09F
SOMERSET       PTSUNNY   70  50  49 N9        30.10F
MIDDLESBORO    PTSUNNY   72  54  52 W7        30.07F
MONTICELLO     PTCLDY    73  55  53 NW9       30.12S
$$



USA.gov is the U.S. government's official web portal to all federal, state and local government web resources and services.